Погода в Быргынде

Россия / Удмуртская Республика     55°54′09″N   53°25′02″E
темп.,
°C
ветер,
м/с
пор.,
м/с
влажн.,
%
обл.,
%
осадки,
мм/ч
давл.,
гПа
погр.,
м
2 марта, вт
вт201:00−20юз469845 0.0 1016117
04:00−18ююз599671 0.0 1013245
07:00−13ююз71395100 0.1 1008414
10:00−10ююз81394100 1.3 1004609
13:00−7ююз81394100 1.6 1001658
16:00−4ююз71395100 2.4 999619
19:00−2ююз61297100 1.1 997503
22:00−2зюз5129499 1.9 997392
3 марта, ср
ср301:00−3зюз6109572 0.1 996403
04:00−4зюз599586 0.2 998306
07:00−6з359690 0.1 998101
10:00−4зюз469594 0.2 999290
13:00−3зюз469599 0.1 999327
16:00−3зюз479599 0.5 999468
19:00−4з4996100 0.4 999349
22:00−6сз61292100 0.8 1001527
4 марта, чт
чт401:00−11з5119470 0.0 1001223
04:00−12з4109660 0.1 1002181
07:00−12зюз5109677 0.0 1001235
10:00−8зюз6119388 0.4 1001493
13:00−4зюз71091100 0.1 999762
16:00−3юз71293100 0.6 998927
19:00−4ююз71595100 0.6 995777
22:000зюз91591100 1.9 9921033
5 марта, пт
пт501:00−3з81584100 0.3 993678
04:00−5з61390100 0.3 996485
07:00−8з3595100 0.0 99899
10:00−7зсз2393100 0.1 999225
13:00−6ссз3590100 0.3 1000362
16:00−6сз4787100 0.3 1001461
19:00−11зсз499033 0.0 1005158
22:00−15зсз469617 0.0 100991
6 марта, сб
сб601:00−17з349633 0.0 101165
04:00−19з349838 0.0 101352
07:00−20з33990 0.0 101435
10:00−16зюз24950 0.0 1014146
13:00−12юз238929 0.0 1014273
16:00−12ю239365 0.0 1012180
19:00−16ююв2296100 0.0 101120
22:00−17ю129881 0.0 101020